Location: Sawmill Trailhead
(33.5800°N, 116.4497°W)
Time: 07:18:18
(UTC-08:00)

Uosat F - Visible Passes

Search period start: 24 January 2017 00:00
Search period end: 03 February 2017 00:00
Orbit: 750 x 761 km, 98.8° (Epoch: 23 January)

Date Brightness Start Highest point End Pass type
(mag) Time Alt. Az. Time Alt. Az. Time Alt. Az.
24 Jan 13.4 05:28:09 10° NE 05:32:22 26° E 05:36:34 10° SSE visible
24 Jan 13.1 18:15:54 10° SSW 18:20:16 31° W 18:24:40 10° NW visible
25 Jan 11.2 17:35:44 10° S 17:40:43 82° WSW 17:45:45 10° NNW visible
26 Jan 12.5 05:47:30 10° NNE 05:52:17 42° E 05:57:03 10° S visible
26 Jan 13.9 18:36:42 10° SW 18:40:13 19° W 18:43:46 10° NW visible
27 Jan 14.2 05:09:29 10° NE 05:12:37 16° E 05:15:44 10° SE visible
27 Jan 12.1 17:55:45 10° S 18:00:35 50° W 18:05:27 10° NNW visible
28 Jan 11.5 06:07:08 10° NNE 06:12:10 69° ESE 06:17:11 10° S visible
28 Jan 14.5 18:58:35 10° WSW 19:00:14 12° W 19:01:54 10° WNW visible
29 Jan 13.5 05:28:24 10° NE 05:32:36 26° E 05:36:47 10° SSE visible
29 Jan 13.1 18:16:06 10° SSW 18:20:29 31° W 18:24:55 10° NW visible
30 Jan 11.2 17:35:58 10° SSE 17:40:57 83° W 17:45:59 10° NNW visible
31 Jan 12.6 05:47:45 10° NNE 05:52:31 42° E 05:57:17 10° S visible
31 Jan 13.9 18:36:54 10° SW 18:40:27 19° W 18:44:02 10° NW visible
01 Feb 14.2 05:09:46 10° NE 05:12:51 16° E 05:15:55 10° SE visible
01 Feb 12.1 17:55:58 10° S 18:00:48 51° W 18:05:42 10° NNW visible
02 Feb 11.6 06:07:22 10° NNE 06:12:24 68° ESE 06:17:26 10° S visible
02 Feb 14.5 18:58:42 10° WSW 19:00:28 12° W 19:02:13 10° WNW visible
